Time,TemperatureF,DewpointF,PressureIn,WindDirection,WindDirectionDegrees,WindSpeedMPH,WindSpeedGustMPH,Humidity,HourlyPrecipIn,Conditions,Clouds,dailyrainin,SolarRadiationWatts/m^2,SoftwareType,DateUTC
2013-01-29 00:03:00,28.0,28.0,-100.00,SSE,153,3.0,4.0,99,0.00,,,0.09,0.000000,,2013-01-29 05:03:00,
2013-01-29 00:32:00,28.0,28.0,-100.00,South,181,3.0,4.0,98,0.00,,,0.09,0.000000,,2013-01-29 05:32:00,
2013-01-29 00:43:00,28.0,28.0,-100.00,South,181,3.0,4.0,98,0.00,,,0.09,0.000000,,2013-01-29 05:43:00,
2013-01-29 00:52:00,28.0,28.0,-100.00,South,181,3.0,4.0,98,0.00,,,0.09,0.000000,,2013-01-29 05:52:00,
2013-01-29 01:02:00,28.0,28.0,-100.00,South,181,3.0,4.0,98,0.00,,,0.09,0.000000,,2013-01-29 06:02:00,
2013-01-29 01:32:00,29.0,29.0,-100.00,SSE,156,5.0,8.0,99,0.00,,,0.09,0.000000,,2013-01-29 06:32:00,
2013-01-29 01:42:00,29.0,29.0,-100.00,SSE,156,5.0,8.0,99,0.00,,,0.09,0.000000,,2013-01-29 06:42:00,
2013-01-29 01:52:00,29.0,29.0,-100.00,SSE,156,5.0,8.0,99,0.00,,,0.09,0.000000,,2013-01-29 06:52:00,
2013-01-29 02:02:00,29.0,29.0,-100.00,SSE,156,5.0,8.0,99,0.00,,,0.09,0.000000,,2013-01-29 07:02:00,
2013-01-29 02:32:00,29.0,29.0,-100.00,SSE,159,7.0,11.0,99,0.00,,,0.09,0.000000,,2013-01-29 07:32:00,
2013-01-29 02:42:00,29.0,29.0,-100.00,SSE,159,7.0,11.0,99,0.00,,,0.09,0.000000,,2013-01-29 07:42:00,
2013-01-29 02:52:00,29.0,29.0,-100.00,SSE,159,7.0,11.0,99,0.00,,,0.09,0.000000,,2013-01-29 07:52:00,
2013-01-29 03:02:00,29.0,29.0,-100.00,SSE,159,7.0,11.0,99,0.00,,,0.09,0.000000,,2013-01-29 08:02:00,
2013-01-29 03:32:00,29.0,29.0,-100.00,SSE,151,7.0,14.0,99,0.01,,,0.10,0.000000,,2013-01-29 08:32:00,
2013-01-29 03:42:00,29.0,29.0,-100.00,SSE,151,7.0,14.0,99,0.01,,,0.10,0.000000,,2013-01-29 08:42:00,
2013-01-29 03:52:00,29.0,29.0,-100.00,SSE,151,7.0,14.0,99,0.01,,,0.10,0.000000,,2013-01-29 08:52:00,
2013-01-29 04:02:00,29.0,29.0,-100.00,SSE,151,7.0,14.0,99,0.01,,,0.10,0.000000,,2013-01-29 09:02:00,
2013-01-29 04:32:00,28.0,28.0,-100.00,SSE,156,7.0,14.0,99,0.00,,,0.10,0.000000,,2013-01-29 09:32:00,
2013-01-29 04:42:00,28.0,28.0,-100.00,SSE,156,7.0,14.0,99,0.00,,,0.10,0.000000,,2013-01-29 09:42:00,
2013-01-29 04:52:00,28.0,28.0,-100.00,SSE,156,7.0,14.0,99,0.00,,,0.10,0.000000,,2013-01-29 09:52:00,
2013-01-29 05:01:00,28.0,28.0,-100.00,SSE,156,7.0,14.0,99,0.00,,,0.10,0.000000,,2013-01-29 10:01:00,
2013-01-29 05:22:00,28.0,28.0,-100.00,SSE,158,8.0,13.0,100,0.00,,,0.10,0.000000,,2013-01-29 10:22:00,
2013-01-29 05:32:00,28.0,28.0,-100.00,SSE,158,8.0,13.0,100,0.00,,,0.10,0.000000,,2013-01-29 10:32:00,
2013-01-29 05:42:00,28.0,28.0,-100.00,SSE,158,8.0,13.0,100,0.00,,,0.10,0.000000,,2013-01-29 10:42:00,
2013-01-29 05:52:00,28.0,28.0,-100.00,SSE,158,8.0,13.0,100,0.00,,,0.10,0.000000,,2013-01-29 10:52:00,
2013-01-29 06:02:00,28.0,28.0,-100.00,SSE,158,8.0,13.0,100,0.00,,,0.10,0.000000,,2013-01-29 11:02:00,
2013-01-29 06:32:00,28.0,28.0,-100.00,SSE,156,8.0,13.0,100,0.00,,,0.10,0.000000,,2013-01-29 11:32:00,
2013-01-29 06:42:00,28.0,28.0,-100.00,SSE,156,8.0,13.0,100,0.00,,,0.10,0.000000,,2013-01-29 11:42:00,
2013-01-29 06:53:00,28.0,28.0,-100.00,SSE,156,8.0,13.0,100,0.00,,,0.10,0.000000,,2013-01-29 11:53:00,
2013-01-29 07:03:00,28.0,28.0,-100.00,SSE,156,8.0,13.0,100,0.00,,,0.10,0.000000,,2013-01-29 12:03:00,
2013-01-29 07:33:00,30.0,30.0,-100.00,SSE,150,8.0,14.0,100,0.00,,,0.10,0.000000,,2013-01-29 12:33:00,
2013-01-29 07:43:00,30.0,30.0,-100.00,SSE,150,8.0,14.0,100,0.00,,,0.10,0.000000,,2013-01-29 12:43:00,
2013-01-29 07:53:00,30.0,30.0,-100.00,SSE,150,8.0,14.0,100,0.00,,,0.10,0.000000,,2013-01-29 12:53:00,
2013-01-29 08:02:00,30.0,30.0,-100.00,SSE,150,8.0,14.0,100,0.00,,,0.10,0.000000,,2013-01-29 13:02:00,
2013-01-29 08:32:00,31.0,31.0,-100.00,SSE,153,11.0,21.0,99,0.00,,,0.10,0.000000,,2013-01-29 13:32:00,
2013-01-29 08:43:00,31.0,31.0,-100.00,SSE,153,11.0,21.0,99,0.00,,,0.10,0.000000,,2013-01-29 13:43:00,
2013-01-29 08:53:00,31.0,31.0,-100.00,SSE,153,11.0,21.0,99,0.00,,,0.10,0.000000,,2013-01-29 13:53:00,
2013-01-29 09:02:00,31.0,31.0,-100.00,SSE,153,11.0,21.0,99,0.00,,,0.10,0.000000,,2013-01-29 14:02:00,
2013-01-29 09:22:00,32.0,32.0,-100.00,SSE,155,9.0,18.0,99,0.00,,,0.10,7.000000,,2013-01-29 14:22:00,
2013-01-29 09:33:00,32.0,32.0,-100.00,SSE,155,9.0,18.0,99,0.00,,,0.10,7.000000,,2013-01-29 14:33:00,
2013-01-29 09:43:00,32.0,32.0,-100.00,SSE,155,9.0,18.0,99,0.00,,,0.10,7.000000,,2013-01-29 14:43:00,
2013-01-29 09:53:00,32.0,32.0,-100.00,SSE,155,9.0,18.0,99,0.00,,,0.10,7.000000,,2013-01-29 14:53:00,
2013-01-29 10:02:00,32.0,32.0,-100.00,SSE,155,9.0,18.0,99,0.00,,,0.10,7.000000,,2013-01-29 15:02:00,
2013-01-29 10:33:00,31.0,31.0,-100.00,SE,145,7.0,14.0,99,0.00,,,0.10,33.000000,,2013-01-29 15:33:00,
2013-01-29 10:43:00,31.0,31.0,-100.00,SE,145,7.0,14.0,99,0.00,,,0.10,33.000000,,2013-01-29 15:43:00,
2013-01-29 10:53:00,31.0,31.0,-100.00,SE,145,7.0,14.0,99,0.00,,,0.10,33.000000,,2013-01-29 15:53:00,
2013-01-29 11:03:00,31.0,31.0,-100.00,SE,145,7.0,14.0,99,0.00,,,0.10,33.000000,,2013-01-29 16:03:00,
2013-01-29 11:33:00,32.0,32.0,-100.00,SSE,151,8.0,13.0,99,0.00,,,0.10,65.000000,,2013-01-29 16:33:00,
2013-01-29 11:43:00,32.0,32.0,-100.00,SSE,151,8.0,13.0,99,0.00,,,0.10,65.000000,,2013-01-29 16:43:00,
2013-01-29 11:53:00,32.0,32.0,-100.00,SSE,151,8.0,13.0,99,0.00,,,0.10,65.000000,,2013-01-29 16:53:00,
2013-01-29 12:03:00,32.0,32.0,-100.00,SSE,151,8.0,13.0,99,0.00,,,0.10,65.000000,,2013-01-29 17:03:00,
2013-01-29 12:04:00,33.0,32.0,-100.00,SSE,167,9.0,15.0,98,0.00,,,0.10,94.000000,,2013-01-29 17:04:00,
2013-01-29 12:22:00,33.0,32.0,-100.00,SSE,167,9.0,15.0,98,0.00,,,0.10,94.000000,,2013-01-29 17:22:00,
2013-01-29 12:33:00,33.0,32.0,-100.00,SSE,167,9.0,15.0,98,0.00,,,0.10,94.000000,,2013-01-29 17:33:00,
2013-01-29 12:42:00,33.0,32.0,-100.00,SSE,167,9.0,15.0,98,0.00,,,0.10,94.000000,,2013-01-29 17:42:00,
2013-01-29 12:53:00,33.0,32.0,-100.00,SSE,167,9.0,15.0,98,0.00,,,0.10,94.000000,,2013-01-29 17:53:00,
2013-01-29 13:22:00,34.0,34.0,-100.00,SSE,158,7.0,13.0,99,0.00,,,0.09,76.000000,,2013-01-29 18:22:00,
2013-01-29 13:33:00,34.0,34.0,-100.00,SSE,158,7.0,13.0,99,0.00,,,0.09,76.000000,,2013-01-29 18:33:00,
2013-01-29 13:42:00,34.0,34.0,-100.00,SSE,158,7.0,13.0,99,0.00,,,0.09,76.000000,,2013-01-29 18:42:00,
2013-01-29 13:52:00,34.0,34.0,-100.00,SSE,158,7.0,13.0,99,0.00,,,0.09,76.000000,,2013-01-29 18:52:00,
2013-01-29 14:03:00,34.0,34.0,-100.00,SSE,158,7.0,13.0,99,0.00,,,0.09,76.000000,,2013-01-29 19:03:00,
2013-01-29 14:33:00,34.0,34.0,-100.00,SSE,156,7.0,14.0,99,0.02,,,0.09,101.000000,,2013-01-29 19:33:00,
2013-01-29 14:42:00,34.0,34.0,-100.00,SSE,156,7.0,14.0,99,0.02,,,0.09,101.000000,,2013-01-29 19:42:00,
2013-01-29 14:52:00,34.0,34.0,-100.00,SSE,156,7.0,14.0,99,0.02,,,0.09,101.000000,,2013-01-29 19:52:00,
2013-01-29 15:03:00,34.0,34.0,-100.00,SSE,156,7.0,14.0,99,0.02,,,0.09,101.000000,,2013-01-29 20:03:00,
2013-01-29 15:33:00,34.0,34.0,-100.00,SSE,156,6.0,14.0,100,0.02,,,0.06,54.000000,,2013-01-29 20:33:00,
2013-01-29 15:42:00,34.0,34.0,-100.00,SSE,156,6.0,14.0,100,0.02,,,0.06,54.000000,,2013-01-29 20:42:00,
2013-01-29 15:53:00,34.0,34.0,-100.00,SSE,156,6.0,14.0,100,0.02,,,0.06,54.000000,,2013-01-29 20:53:00,
2013-01-29 16:03:00,34.0,34.0,-100.00,SSE,156,6.0,14.0,100,0.02,,,0.06,54.000000,,2013-01-29 21:03:00,
2013-01-29 16:34:00,34.0,34.0,-100.00,SSE,161,6.0,15.0,100,0.08,,,0.13,32.000000,,2013-01-29 21:34:00,
2013-01-29 16:42:00,34.0,34.0,-100.00,SSE,161,6.0,15.0,100,0.08,,,0.13,32.000000,,2013-01-29 21:42:00,
2013-01-29 16:53:00,34.0,34.0,-100.00,SSE,161,6.0,15.0,100,0.08,,,0.13,32.000000,,2013-01-29 21:53:00,
2013-01-29 17:03:00,34.0,34.0,-100.00,SSE,161,6.0,15.0,100,0.08,,,0.13,32.000000,,2013-01-29 22:03:00,
2013-01-29 17:33:00,35.0,35.0,-100.00,SSE,156,4.0,8.0,100,0.08,,,0.21,17.000000,,2013-01-29 22:33:00,
2013-01-29 17:42:00,35.0,35.0,-100.00,SSE,156,4.0,8.0,100,0.08,,,0.21,17.000000,,2013-01-29 22:42:00,
2013-01-29 17:53:00,35.0,35.0,-100.00,SSE,156,4.0,8.0,100,0.08,,,0.21,17.000000,,2013-01-29 22:53:00,
2013-01-29 18:02:00,35.0,35.0,-100.00,SSE,156,4.0,8.0,100,0.08,,,0.21,17.000000,,2013-01-29 23:02:00,
2013-01-29 18:33:00,33.0,33.0,-100.00,NE,45,3.0,6.0,100,0.04,,,0.25,2.000000,,2013-01-29 23:33:00,
2013-01-29 18:42:00,33.0,33.0,-100.00,NE,45,3.0,6.0,100,0.04,,,0.25,2.000000,,2013-01-29 23:42:00,
2013-01-29 18:53:00,33.0,33.0,-100.00,NE,45,3.0,6.0,100,0.04,,,0.25,2.000000,,2013-01-29 23:53:00,
2013-01-29 19:03:00,33.0,33.0,-100.00,NE,45,3.0,6.0,100,0.04,,,0.25,2.000000,,2013-01-30 00:03:00,
2013-01-29 19:33:00,33.0,33.0,-100.00,ENE,77,2.0,7.0,100,0.03,,,0.28,0.000000,,2013-01-30 00:33:00,
2013-01-29 19:43:00,33.0,33.0,-100.00,ENE,77,2.0,7.0,100,0.03,,,0.28,0.000000,,2013-01-30 00:43:00,
2013-01-29 19:53:00,33.0,33.0,-100.00,ENE,77,2.0,7.0,100,0.03,,,0.28,0.000000,,2013-01-30 00:53:00,
2013-01-29 20:02:00,33.0,33.0,-100.00,ENE,77,2.0,7.0,100,0.03,,,0.28,0.000000,,2013-01-30 01:02:00,
2013-01-29 20:23:00,33.0,33.0,-100.00,NNW,334,2.0,5.0,100,0.02,,,0.30,0.000000,,2013-01-30 01:23:00,
2013-01-29 20:32:00,33.0,33.0,-100.00,NNW,334,2.0,5.0,100,0.02,,,0.30,0.000000,,2013-01-30 01:32:00,
2013-01-29 20:43:00,33.0,33.0,-100.00,NNW,334,2.0,5.0,100,0.02,,,0.30,0.000000,,2013-01-30 01:43:00,
2013-01-29 20:52:00,33.0,33.0,-100.00,NNW,334,2.0,5.0,100,0.02,,,0.30,0.000000,,2013-01-30 01:52:00,
2013-01-29 21:02:00,33.0,33.0,-100.00,NNW,334,2.0,5.0,100,0.02,,,0.30,0.000000,,2013-01-30 02:02:00,
2013-01-29 21:22:00,34.0,34.0,-100.00,NNE,16,3.0,6.0,100,0.02,,,0.32,0.000000,,2013-01-30 02:22:00,
2013-01-29 21:33:00,34.0,34.0,-100.00,NNE,16,3.0,6.0,100,0.02,,,0.32,0.000000,,2013-01-30 02:33:00,
2013-01-29 21:42:00,34.0,34.0,-100.00,NNE,16,3.0,6.0,100,0.02,,,0.32,0.000000,,2013-01-30 02:42:00,
2013-01-29 21:53:00,34.0,34.0,-100.00,NNE,16,3.0,6.0,100,0.02,,,0.32,0.000000,,2013-01-30 02:53:00,
2013-01-29 22:03:00,34.0,34.0,-100.00,NNE,16,3.0,6.0,100,0.02,,,0.32,0.000000,,2013-01-30 03:03:00,
2013-01-29 22:22:00,34.0,34.0,-100.00,North,1,5.0,10.0,100,0.04,,,0.36,0.000000,,2013-01-30 03:22:00,
2013-01-29 22:32:00,34.0,34.0,-100.00,North,1,5.0,10.0,100,0.04,,,0.36,0.000000,,2013-01-30 03:32:00,
2013-01-29 22:42:00,34.0,34.0,-100.00,North,1,5.0,10.0,100,0.04,,,0.36,0.000000,,2013-01-30 03:42:00,
2013-01-29 22:52:00,34.0,34.0,-100.00,North,1,5.0,10.0,100,0.04,,,0.36,0.000000,,2013-01-30 03:52:00,
2013-01-29 23:02:00,34.0,34.0,-100.00,North,1,5.0,10.0,100,0.04,,,0.36,0.000000,,2013-01-30 04:02:00,
2013-01-29 23:04:00,34.0,34.0,-100.00,North,350,6.0,10.0,100,0.03,,,0.39,0.000000,,2013-01-30 04:04:00,
2013-01-29 23:32:00,34.0,34.0,-100.00,North,350,6.0,10.0,100,0.03,,,0.39,0.000000,,2013-01-30 04:32:00,
2013-01-29 23:42:00,34.0,34.0,-100.00,North,350,6.0,10.0,100,0.03,,,0.39,0.000000,,2013-01-30 04:42:00,
2013-01-29 23:52:00,34.0,34.0,-100.00,North,350,6.0,10.0,100,0.03,,,0.39,0.000000,,2013-01-30 04:52:00,